Location: Meylan - GAD - Ancien Couvent des Capucins
(45.2229°N, 5.7790°E)
Time: 07:20:41
(UTC+02:00)

ISS - Visible Passes

Search period start: 28 July 2021 00:00
Search period end: 07 August 2021 00:00
Orbit: 419 x 421 km, 51.6° (Epoch: 28 July)

Date Brightness Start Highest point End Pass type
(mag) Time Alt. Az. Time Alt. Az. Time Alt. Az.
28 Jul -3.5 22:22:58 10° WNW 22:26:21 65° NNE 22:28:41 18° ESE visible
29 Jul -1.5 00:00:17 10° W 00:01:38 17° WSW 00:01:38 17° WSW visible
29 Jul -2.8 23:12:42 10° WNW 23:15:47 33° SW 23:16:01 33° SSW visible
30 Jul -3.4 22:25:20 10° WNW 22:28:38 53° SW 22:30:29 23° SSE visible
31 Jul -3.7 21:38:05 10° WNW 21:41:29 83° SSW 21:44:52 10° ESE visible
31 Jul -1.3 23:16:12 10° WSW 23:17:50 13° SW 23:18:00 13° SW visible
01 Aug -1.8 22:28:15 10° W 22:30:51 21° SW 22:32:38 14° S visible
02 Aug -2.4 21:40:47 10° WNW 21:43:51 32° SW 21:46:54 10° SSE visible
04 Aug -1.1 21:44:35 10° WSW 21:46:07 13° SW 21:47:41 10° SSW visible
